This is the latest recevied weather packets stored in our database for station/object WB5CFT. If no packets are shown the sender has not sent any weather packets the latest 10 day(s).
| Time | Temp. | Humidity | Pressure | Rain* | Wind** | Luminosity | Snow |
|---|---|---|---|---|---|---|---|
| 1788134530 | 99° F | 24% | 760 mmHg | 0 in | - | 102 W/m² | - |
| 1788134229 | 99° F | 24% | 760.2 mmHg | 0 in | - | 112 W/m² | - |
| 1788133924 | 99° F | 24% | 760.2 mmHg | 0 in | - | 123 W/m² | - |
| 1788133618 | 99° F | 24% | 760.3 mmHg | 0 in | - | 133 W/m² | - |
| 1788133314 | 99° F | 24% | 760.3 mmHg | 0 in | - | 144 W/m² | - |
| 1788133009 | 99° F | 24% | 760.3 mmHg | 0 in | - | 156 W/m² | - |
| 1788132705 | 99° F | 24% | 760.3 mmHg | 0 in | - | 179 W/m² | - |
| 1788132401 | 100° F | 25% | 760.3 mmHg | 0 in | - | 192 W/m² | - |
| 1788132096 | 99° F | 25% | 760.4 mmHg | 0 in | - | 207 W/m² | - |
| 1788131792 | 99° F | 24% | 760.5 mmHg | 0 in | - | 218 W/m² | - |
| 1788131492 | 99° F | 25% | 760.4 mmHg | 0 in | - | 231 W/m² | - |
| 1788131187 | 99° F | 25% | 760.5 mmHg | 0 in | - | 245 W/m² | - |
| 1788130887 | 99° F | 25% | 760.6 mmHg | 0 in | - | 261 W/m² | - |
| 1788130582 | 99° F | 25% | 760.6 mmHg | 0 in | - | 274 W/m² | - |
| 1788130278 | 100° F | 25% | 760.6 mmHg | 0 in | - | 288 W/m² | - |
| 1788129976 | 99° F | 25% | 760.5 mmHg | 0 in | - | 305 W/m² | - |
| 1788129672 | 99° F | 24% | 760.6 mmHg | 0 in | - | 325 W/m² | - |
| 1788129369 | 99° F | 25% | 760.5 mmHg | 0 in | - | 342 W/m² | - |
| 1788129068 | 99° F | 25% | 760.6 mmHg | 0 in | - | 360 W/m² | - |
| 1788128763 | 100° F | 25% | 760.6 mmHg | 0 in | - | 374 W/m² | - |
| 1788128460 | 99° F | 25% | 760.5 mmHg | 0 in | - | 389 W/m² | - |
| 1788128155 | 99° F | 26% | 760.6 mmHg | 0 in | - | 398 W/m² | - |
| 1788127851 | 99° F | 26% | 760.9 mmHg | 0 in | - | 415 W/m² | - |
| 1788127551 | 100° F | 26% | 760.6 mmHg | 0 in | - | 433 W/m² | - |
| 1788127250 | 101° F | 26% | 760.8 mmHg | 0 in | - | 445 W/m² | - |
* Rain latest hour (hover to see other rain measurements)
** Current wind speed in m/s (hover to see current wind gust speed)